Lid_Strength_Index
7 7 7 7 7 7 6 5 9 5 6 9 11 11 11 11 10 8 8 9 10 11 12 12 12 11 10 10 10 11 9 10 12 11 10 9 9 9 8 10 11 10 10 10
7 7 7 7 7 7 6 7 7 4 6 11 11 11 10 9 9 9 9 10 10 10 11 12 11 11 10 10 10 10 10 11 13 12 10 10 10 10 10 10 9 10 11 10
7 7 7 7 7 6 5 6 9 7 7 9 10 11 10 10 8 8 8 9 9 10 11 11 11 11 9 9 9 4 7 10 11 13 10 9 10 10 10 9 10 10 10 8
5 5 5 5 5 5 4 5 7 7 9 8 8 9 9 10 9 8 8 10 10 10 11 11 11 10 10 9 6 8 8 10 10 10 10 9 9 9 10 10 9 10 9 9
5 5 5 5 5 5 4 7 7 5 7 7 8 9 9 9 9 9 9 9 9 9 10 10 11 10 10 9 7 9 10 10 10 10 10 9 10 9 8 8 9 9 9 9
3 4 4 4 5 5 4 3 3 5 8 8 9 9 8 8 8 8 8 8 8 9 8 9 8 8 8 9 8 9 9 9 10 11 10 10 12 9 8 9 9 8 11 8
2 2 2 3 4 4 4 2 3 7 10 8 9 8 8 8 8 9 7 7 8 7 6 6 8 9 9 9 9 8 9 9 9 11 10 14 9 7 7 8 9 8 9 8
1 1 2 2 3 4 4 1 3 6 10 7 8 8 8 7 7 8 7 6 5 5 6 8 9 10 10 9 9 9 8 8 10 12 12 10 11 10 9 9 10 8 9 8
1 1 1 1 2 3 3 3 1 4 8 9 6 8 7 9 9 8 7 4 4 5 8 10 12 13 10 11 11 9 9 8 9 11 13 14 9 8 6 7 11 8 7 8
1 1 1 1 1 3 3 3 0 3 8 6 5 8 8 6 7 9 7 7 7 7 9 11 12 12 9 12 12 11 10 10 11 11 12 10 8 7 6 12 9 7 7 7
1 1 1 1 1 2 3 3 2 3 6 5 4 4 6 6 7 10 7 8 7 8 10 11 11 11 10 10 8 10 11 11 11 12 11 12 6 7 10 8 6 6 6 6
2 1 1 2 2 2 3 5 2 1 4 5 2 2 2 3 4 6 6 7 8 7 9 10 9 11 9 9 13 7 11 9 10 9 9 6 6 7 5 5 6 6 6 5
2 1 1 1 1 2 3 4 2 3 5 5 5 5 2 1 1 1 7 6 5 6 5 7 9 11 8 11 10 9 8 6 8 8 8 8 7 6 5 5 5 5 4 5
2 2 1 1 2 2 2 5 3 4 5 9 7 2 3 1 1 2 2 3 3 4 5 8 9 10 7 9 8 9 7 7 8 9 8 7 6 6 5 5 4 5 4 4
2 1 1 2 2 2 2 3 4 3 6 9 8 5 3 1 1 2 2 3 5 6 8 9 10 7 8 7 7 9 6 7 9 9 7 6 6 5 5 5 5 5 5 5
2 1 2 2 2 3 4 7 4 3 4 8 10 5 5 3 3 3 4 4 5 6 8 8 7 5 7 10 11 7 5 5 5 6 5 4 4 4 4 5 4 4 4 4
2 2 2 3 3 3 6 7 5 3 3 8 10 9 5 3 3 4 4 4 5 6 7 8 7 7 6 9 11 6 5 5 4 4 5 6 5 6 4 4 3 3 3 3
2 2 3 3 3 3 4 3 3 3 5 6 10 10 7 4 7 8 4 6 6 7 8 7 9 7 8 11 8 6 6 5 5 4 4 4 4 4 4 3 3 4 4 4
2 2 2 1 2 4 3 2 2 2 5 9 9 11 12 5 7 6 6 6 10 6 9 9 8 10 12 9 7 6 6 6 6 5 4 4 5 5 4 4 4 4 4 4
2 1 3 5 3 1 1 4 6 6 5 6 9 7 10 7 7 8 8 8 10 12 10 7 10 11 7 6 7 6 5 5 4 6 7 6 6 5 5 4 4 4 4 3
2 4 5 3 1 2 5 8 8 8 9 7 7 7 9 6 10 10 7 10 10 13 11 11 11 11 8 6 7 5 4 4 4 4 4 4 4 5 4 4 4 3 3 3
3 4 3 4 4 6 9 9 8 9 11 8 9 8 7 7 5 9 8 11 10 14 8 11 12 9 7 6 6 6 5 5 4 3 4 3 4 3 3 3 3 3 2 2
2 4 5 6 6 11 11 13 11 11 8 7 7 9 7 6 6 8 9 11 12 8 12 12 11 8 6 6 6 6 5 4 5 4 4 3 4 3 3 3 2 2 2 2
5 7 11 9 10 9 9 10 9 7 6 7 7 8 9 7 9 9 11 9 10 13 14 14 9 7 6 6 5 5 5 5 5 4 4 4 4 4 3 2 2 2 3 2
6 7 12 9 7 6 6 6 6 5 5 6 7 7 7 9 10 9 10 11 14 13 13 10 8 7 6 6 5 5 5 4 4 3 3 3 3 3 3 2 2 2 2 2
5 6 8 6 7 7 6 6 6 4 5 5 6 8 10 11 10 11 13 13 14 12 9 7 6 5 6 5 5 4 4 4 3 3 3 3 3 3 3 2 2 2 2 2
6 7 5 6 6 7 6 5 5 3 6 8 7 11 11 8 11 12 10 12 10 8 7 6 5 5 5 5 4 4 3 3 3 3 3 3 2 2 3 3 2 2 2 2